This demonstration page uses our WeatherBlox Daily Observations layout. Learn more.

Left ArrowRight Arrow

40.97296, -117.73568

Hourly Observations for August 12, 2016

Temp ( °F °C ) Dew Point ( °F °C ) Humidity (%) Winds ( mph kmh ) Pressure ( in mb ) Visibility ( mi km ) Precip ( " mm )
12:56 am 00:56 Clear 66 18.9 27 -2.8 23 23 ENE 12 19 30.00 1016 10 16 0.00 0.00
1:56 am 01:56 Clear 61 16.1 27 -2.8 27 27 Calm 30.01 1016 10 16 0.00 0.00
2:56 am 02:56 Clear 66 18.9 30 -1.1 26 26 ENE 12 19 30.01 1016 10 16 0.00 0.00
3:56 am 03:56 Clear 56 13.3 28 -2.2 34 34 ENE 7 11 30.03 1017 10 16 0.00 0.00
4:56 am 04:56 Clear 48 8.9 27 -2.8 44 44 SE 10 17 30.05 1018 10 16 0.00 0.00
5:56 am 05:56 Clear 45 7.2 25 -3.9 46 46 S 6 9 30.07 1018 10 16 0.00 0.00
6:56 am 06:56 Sunny 51 10.6 26 -3.3 38 38 SE 5 7 30.08 1019 10 16 0.00 0.00
7:56 am 07:56 Sunny 63 17.2 27 -2.8 26 26 Calm 30.08 1019 10 16 0.00 0.00
8:56 am 08:56 Sunny 73 22.8 35 1.7 25 25 VRB 3 6 30.09 1019 10 16 0.00 0.00
9:56 am 09:56 Sunny 79 26.1 33 0.6 19 19 E 6 9 30.08 1019 10 16 0.00 0.00
10:56 am 10:56 Sunny 85 29.4 30 -1.1 14 14 NNW 5 7 30.07 1018 10 16 0.00 0.00
11:56 am 11:56 Sunny 89 31.7 29 -1.7 11 11 VRB 6 9 30.05 1018 10 16 0.00 0.00
1:56 pm 13:56 Sunny 93 33.9 26 -3.3 9 9 WNW 9 15 30.01 1016 10 16 0.00 0.00
2:56 pm 14:56 Sunny 93 33.9 26 -3.3 9 9 W 13 20 29.98 1015 10 16 0.00 0.00
3:56 pm 15:56 Sunny 94 34.4 22 -5.6 7 7 VRB 5 7 29.98 1015 10 16 0.00 0.00
4:56 pm 16:56 Sunny 94 34.4 23 -5 8 8 W 9 15 29.98 1015 10 16 0.00 0.00
5:56 pm 17:56 Sunny 92 33.3 21 -6.1 7 7 VRB 3 6 29.97 1015 10 16 0.00 0.00
6:56 pm 18:56 Sunny 91 32.8 19 -7.2 7 7 WNW 6 9 29.96 1015 10 16 0.00 0.00
7:56 pm 19:56 Clear 84 28.9 22 -5.6 10 10 N 3 6 29.96 1014 10 16 0.00 0.00
8:56 pm 20:56 Clear 69 20.6 24 -4.4 18 18 SE 5 7 29.98 1015 10 16 0.00 0.00
9:56 pm 21:56 Clear 66 18.9 23 -5 19 19 ESE 5 7 29.98 1015 10 16 0.00 0.00
10:56 pm 22:56 Clear 61 16.1 23 -5 23 23 SSE 6 9 29.98 1015 10 16 0.00 0.00
11:56 pm 23:56 Clear 58 14.4 23 -5 26 26 SE 9 15 29.98 1015 10 16 0.00 0.00

Powered by AerisWeather